Flag for U.S.A. Weather past 2 weeks in Olympia, Washington, U.S.A.

Now
50 °F

Sunny.


Feels Like: 47 °F
Forecast: 30 / 52 °F
Wind: 8 mph from Northeast

Location: Olympia Airport

Current Time: Mar 3, 2015 at 1:06:43 PM

Latest Report: Mar 3, 2015 at 11:54 AM


Visibility: 10 mi

Pressure: 30.26 "Hg

Humidity: 35%

Dew point: 23 °F

Location of OlympiaLocation

Historic Weather in Olympia — Graph

°F

Olympia temperature yesterday

Maximum temperature yesterday: 52 °F (at 1:54 PM)
Minimum temperature yesterday: 29 °F (at 10:54 PM)
Average temperature yesterday: 43 °F

Past Weeks' High & Low Weather Summary

 TemperatureHumidityPressure
High61 °F (Feb 17, 2:54 PM)100% (Feb 20, 6:03 AM)30.46 "Hg (Feb 20, 6:03 AM)
Low22 °F (Mar 3, 5:54 AM)24% (Feb 28, 2:54 PM)29.70 "Hg (Feb 27, 6:54 AM)
Average44 °F77%30.21 "Hg
* Reported Feb 16 10:54 AM — Mar 3 10:54 AM, Olympia, Weather by CustomWeather, © 2015

Note: Actual official high and low records may vary slightly from our data, if they occured in-between our weather recording intervals... More about our weather records

Advertising

Olympia weather history for previous 24 hours

 ConditionsComfort  
Time TempWeatherWind HumidityBarometerVisibility
10:54 AM
Tue, Mar 3
47 °FSunny.6 mph46%30.27 "Hg10 mi
9:54 AM43 °FSunny.No wind71%30.27 "Hg10 mi
8:54 AM35 °FSunny.No wind85%30.26 "Hg9 mi
7:54 AM28 °FSunny.No wind93%30.24 "Hg8 mi
6:54 AM23 °FIce fog.No wind88%30.23 "Hg2 mi
6:04 AM25 °FIce fog.No wind96%30.23 "Hg1 mi
5:54 AM22 °FIce fog.No wind96%30.23 "Hg1 mi
4:54 AM24 °FClear.No wind96%30.23 "Hg7 mi
4:01 AM26 °FClear.No wind92%30.21 "Hg9 mi
3:54 AM26 °FIce fog.No wind92%30.22 "Hg2 mi
2:54 AM27 °FClear.No wind92%30.21 "Hg7 mi
1:54 AM27 °FClear.No wind89%30.19 "Hg9 mi
12:54 AM29 °FClear.No wind93%30.18 "Hg8 mi
11:54 PM
Mon, Mar 2
30 °FClear.No wind92%30.16 "Hg9 mi
10:54 PM29 °FClear.3 mph93%30.15 "Hg9 mi
9:54 PM32 °FClear.No wind88%30.12 "Hg9 mi
8:54 PM32 °FClear.No wind88%30.11 "Hg10 mi
7:54 PM35 °FClear.No wind82%30.09 "Hg10 mi
6:54 PM42 °FClear.3 mph65%30.07 "Hg10 mi
5:54 PM48 °FSunny.6 mph52%30.06 "Hg10 mi
4:54 PM50 °FPassing clouds.3 mph52%30.05 "Hg10 mi
3:54 PM52 °FPassing clouds.7 mph49%30.04 "Hg10 mi
2:54 PM52 °FScattered clouds.9 mph49%30.02 "Hg10 mi
1:54 PM52 °FScattered clouds.10 mph53%30.03 "Hg10 mi
Weather by CustomWeather, © 2015

See weather overviewHow to use our weather pages